User: anonymous   Login
Location: Unspecified
(0.0000°N, 0.0000°E)
Time: 19:19:41
(UTC+00:00)
Language:

Terriers - Orbit

View from above orbital plane
View from above orbital plane
View from above satellite
View from above satellite

Ground track
Ground track

The orbit data is extracted from the following two-line orbital elements,

1 25735U 99026A   19340.85911622 +.00001291 +00000-0 +25979-4 0  9998
2 25735 097.2514 154.2588 0003099 331.8698 028.2385 15.48521520145791
Epoch (UTC): 06 December 2019 20:37:07
Eccentricity: 0.0003099
inclination: 97.2514°
perigee height: 419 km
apogee height: 423 km
right ascension of ascending node: 154.2588°
argument of perigee: 331.8698°
revolutions per day: 15.48521520
mean anomaly at epoch: 28.2385°
orbit number at epoch: 14579

The dashed part of the orbit path shows where the satellite is in the earth's shadow,  

DLR